Check out our new BloomSky Weather System.

Active alerts


No alerts


Thunder radar  blitzortung!


Rain radar more information rain snow radar


Visit our other weather sites:

Template documentation
and downloads

And another site



Weather Underground History page Text

Daily Summary for March 9, 2017 Units:  Metric    English   Both
« Previous Day
Next Day »
Daily Weekly Monthly Yearly Custom
  High: Low: Average:
Temperature: -17.8 °C 18.3 °C 21.9 °C
Dew Point: -17.8 °C 17.8 °C 19.9 °C
Humidity: Humidity % 75 % 89 %
Wind Speed: 0 km/h 0 km/h 4.8 km/h
Wind Gust: 0 km/h - -
Wind:- - SE
Pressure: 0 hPa 1017.2 hPa -
Precipitation: 0 mm    
Historical Graphs
 
 
Tabular Data for March 9, 2017
Time Temperature Dew Point Pressure Wind Wind Speed Wind Gust Humidity Rainfall Rate (Hourly)
-17.8 °C -17.8 °C 0 hPa Calm     Humidity % 0 mm
00:02 18.3 °C 17.8 °C 1022.2 hPa ESE 4.8 km/h 9.7 km/h 97 % 0 mm
00:07 18.3 °C 17.8 °C 1022.2 hPa SE 3.2 km/h 11.3 km/h 97 % 0 mm
00:12 18.3 °C 17.8 °C 1022.2 hPa SSE 1.6 km/h 11.3 km/h 97 % 0 mm
00:17 18.3 °C 17.8 °C 1021.9 hPa East 3.2 km/h 11.3 km/h 97 % 0 mm
00:22 18.3 °C 18 °C 1021.9 hPa ESE 4.8 km/h 8 km/h 98 % 0 mm
00:27 18.3 °C 18 °C 1021.9 hPa ESE 3.2 km/h 8 km/h 98 % 0 mm
00:32 18.4 °C 18.1 °C 1021.9 hPa SE 4.8 km/h 8 km/h 98 % 0 mm
00:37 18.4 °C 18.1 °C 1021.9 hPa ENE 3.2 km/h 8 km/h 98 % 0 mm
00:42 18.4 °C 18.1 °C 1021.9 hPa SE 3.2 km/h 9.7 km/h 98 % 0 mm
00:47 18.5 °C 18.2 °C 1022.2 hPa SE 4.8 km/h 11.3 km/h 98 % 0 mm
00:52 18.6 °C 18.3 °C 1022.2 hPa ESE 4.8 km/h 11.3 km/h 98 % 0 mm
00:57 18.6 °C 18.3 °C 1022.2 hPa ESE 4.8 km/h 11.3 km/h 98 % 0 mm
01:02 18.6 °C 18.3 °C 1022.2 hPa SSE 1.6 km/h 9.7 km/h 98 % 0 mm
01:07 18.6 °C 18.3 °C 1022.2 hPa SE 3.2 km/h 9.7 km/h 98 % 0 mm
01:12 18.6 °C 18.3 °C 1021.9 hPa SE 3.2 km/h 9.7 km/h 98 % 0 mm
01:17 18.6 °C 18.3 °C 1021.9 hPa ESE 1.6 km/h 8 km/h 98 % 0 mm
01:22 18.6 °C 18.3 °C 1021.9 hPa Calm   8 km/h 98 % 0 mm
01:27 18.7 °C 18.4 °C 1021.9 hPa ESE 3.2 km/h 4.8 km/h 98 % 0 mm
01:32 18.7 °C 18.4 °C 1021.9 hPa ESE 3.2 km/h 4.8 km/h 98 % 0 mm
01:37 18.7 °C 18.4 °C 1021.9 hPa East 1.6 km/h 4.8 km/h 98 % 0 mm
01:42 18.7 °C 18.4 °C 1021.9 hPa SSE 1.6 km/h 6.4 km/h 98 % 0 mm
01:47 18.7 °C 18.4 °C 1021.9 hPa ESE 4.8 km/h 6.4 km/h 98 % 0 mm
01:52 18.8 °C 18.5 °C 1021.9 hPa ESE 3.2 km/h 6.4 km/h 98 % 0 mm
01:57 18.8 °C 18.5 °C 1021.6 hPa ESE 8 km/h 8 km/h 98 % 0 mm
02:02 18.8 °C 18.5 °C 1021.6 hPa ESE 1.6 km/h 9.7 km/h 98 % 0 mm
02:07 18.8 °C 18.5 °C 1021.6 hPa SSE 3.2 km/h 11.3 km/h 98 % 0 mm
02:12 18.9 °C 18.6 °C 1021.6 hPa SE 6.4 km/h 11.3 km/h 98 % 0 mm
02:17 18.9 °C 18.6 °C 1021.6 hPa SSE 3.2 km/h 11.3 km/h 98 % 0 mm
02:22 18.9 °C 18.6 °C 1021.6 hPa East 4.8 km/h 9.7 km/h 98 % 0 mm
02:24 18.9 °C 18.6 °C 1021.6 hPa SE 6.4 km/h 9.7 km/h 98 % 0 mm
02:29 18.9 °C 18.6 °C 1021.6 hPa SE 1.6 km/h 9.7 km/h 98 % 0 mm
02:34 18.9 °C 18.6 °C 1021.6 hPa SSE 1.6 km/h 8 km/h 98 % 0 mm
02:39 19 °C 18.7 °C 1021.2 hPa SSE 1.6 km/h 8 km/h 98 % 0 mm
02:44 19 °C 18.7 °C 1021.2 hPa Calm   6.4 km/h 98 % 0 mm
02:49 19 °C 18.7 °C 1021.2 hPa Calm   6.4 km/h 98 % 0 mm
02:54 19 °C 18.7 °C 1021.2 hPa SE 3.2 km/h 6.4 km/h 98 % 0 mm
02:59 19 °C 18.7 °C 1021.6 hPa Calm   4.8 km/h 98 % 0 mm
03:04 19 °C 18.7 °C 1021.2 hPa East 4.8 km/h 4.8 km/h 98 % 0 mm
03:09 19 °C 18.7 °C 1021.2 hPa East 1.6 km/h 4.8 km/h 98 % 0 mm
03:15 19 °C 18.7 °C 1021.2 hPa SE 3.2 km/h 4.8 km/h 98 % 0 mm
03:20 19 °C 18.7 °C 1020.9 hPa Calm   4.8 km/h 98 % 0 mm
03:25 19 °C 18.7 °C 1021.2 hPa East 4.8 km/h 4.8 km/h 98 % 0 mm
03:30 19 °C 18.7 °C 1021.2 hPa East 1.6 km/h 4.8 km/h 98 % 0 mm
03:35 19 °C 18.7 °C 1020.9 hPa East 1.6 km/h 6.4 km/h 98 % 0 mm
03:40 19 °C 18.7 °C 1020.9 hPa ESE 1.6 km/h 6.4 km/h 98 % 0 mm
03:45 19 °C 18.7 °C 1020.9 hPa ESE 1.6 km/h 6.4 km/h 98 % 0 mm
03:50 18.9 °C 18.6 °C 1020.9 hPa SE 1.6 km/h 6.4 km/h 98 % 0 mm
03:55 18.9 °C 18.6 °C 1020.9 hPa Calm   6.4 km/h 98 % 0 mm
04:00 19 °C 18.7 °C 1020.9 hPa ESE 3.2 km/h 8 km/h 98 % 0 mm
04:05 19 °C 18.7 °C 1020.9 hPa SSE 3.2 km/h 8 km/h 98 % 0 mm
04:10 19 °C 18.7 °C 1020.9 hPa Calm   8 km/h 98 % 0 mm
04:15 19.1 °C 18.8 °C 1020.9 hPa ENE 3.2 km/h 6.4 km/h 98 % 0 mm
04:20 19.1 °C 18.8 °C 1020.9 hPa SE 3.2 km/h 6.4 km/h 98 % 0 mm
04:25 19.1 °C 18.8 °C 1020.9 hPa SSE 1.6 km/h 6.4 km/h 98 % 0 mm
04:30 19.1 °C 18.8 °C 1020.9 hPa ESE 3.2 km/h 4.8 km/h 98 % 0 mm
04:35 19.1 °C 18.8 °C 1021.2 hPa SE 1.6 km/h 4.8 km/h 98 % 0 mm
04:40 19.2 °C 18.9 °C 1021.2 hPa ESE 1.6 km/h 4.8 km/h 98 % 0 mm
04:45 19.2 °C 18.9 °C 1021.2 hPa SSE 3.2 km/h 6.4 km/h 98 % 0 mm
04:50 19.2 °C 18.9 °C 1021.2 hPa ESE 1.6 km/h 6.4 km/h 98 % 0 mm
04:55 19.2 °C 18.9 °C 1020.9 hPa East 1.6 km/h 6.4 km/h 98 % 0 mm
05:00 19.2 °C 18.9 °C 1020.9 hPa SE 1.6 km/h 6.4 km/h 98 % 0 mm
05:05 19.2 °C 18.9 °C 1020.9 hPa Calm   6.4 km/h 98 % 0 mm
05:10 19.2 °C 18.9 °C 1020.9 hPa ESE 3.2 km/h 6.4 km/h 98 % 0 mm
05:15 19.2 °C 18.9 °C 1020.9 hPa ESE 1.6 km/h 6.4 km/h 98 % 0 mm
05:20 19.2 °C 18.9 °C 1020.9 hPa ESE 1.6 km/h 4.8 km/h 98 % 0 mm
05:25 19.3 °C 19 °C 1020.9 hPa ESE 1.6 km/h 4.8 km/h 98 % 0 mm
05:30 19.3 °C 19 °C 1021.2 hPa ESE 3.2 km/h 3.2 km/h 98 % 0 mm
05:35 19.3 °C 19 °C 1021.2 hPa SSE 3.2 km/h 4.8 km/h 98 % 0 mm
05:41 19.3 °C 19 °C 1021.2 hPa SE 1.6 km/h 4.8 km/h 98 % 0 mm
05:46 19.3 °C 19 °C 1021.2 hPa SE 1.6 km/h 4.8 km/h 98 % 0 mm
05:51 19.3 °C 19 °C 1021.2 hPa ESE 1.6 km/h 4.8 km/h 98 % 0 mm
05:56 19.4 °C 19.1 °C 1021.2 hPa Calm   4.8 km/h 98 % 0 mm
06:01 19.4 °C 19.1 °C 1021.2 hPa SE 3.2 km/h 4.8 km/h 98 % 0 mm
06:06 19.4 °C 19.1 °C 1021.6 hPa SSE 6.4 km/h 6.4 km/h 98 % 0 mm
06:08 19.4 °C 19.1 °C 1021.2 hPa SE 1.6 km/h 6.4 km/h 98 % 0 mm
06:13 19.4 °C 19.1 °C 1021.6 hPa SE 3.2 km/h 8 km/h 98 % 0 mm
06:18 19.4 °C 19.1 °C 1021.2 hPa ESE 3.2 km/h 8 km/h 98 % 0 mm
06:23 19.5 °C 19.2 °C 1021.6 hPa ESE 1.6 km/h 8 km/h 98 % 0 mm
06:28 19.5 °C 19.2 °C 1021.6 hPa SSE 1.6 km/h 6.4 km/h 98 % 0 mm
06:33 19.5 °C 19.3 °C 1021.6 hPa Calm   6.4 km/h 99 % 0 mm
06:38 19.6 °C 19.3 °C 1021.6 hPa SSE 4.8 km/h 6.4 km/h 98 % 0 mm
06:43 19.6 °C 19.3 °C 1021.6 hPa East 1.6 km/h 6.4 km/h 98 % 0 mm
06:48 19.6 °C 19.3 °C 1021.6 hPa Calm   4.8 km/h 98 % 0 mm
06:53 19.6 °C 19.3 °C 1021.6 hPa SSE 3.2 km/h 6.4 km/h 98 % 0 mm
06:58 19.6 °C 19.3 °C 1021.6 hPa ESE 8 km/h 8 km/h 98 % 0 mm
07:03 19.7 °C 19.4 °C 1021.6 hPa SE 1.6 km/h 8 km/h 98 % 0 mm
07:09 19.7 °C 19.5 °C 1021.6 hPa Calm   8 km/h 99 % 0 mm
07:14 19.7 °C 19.4 °C 1021.6 hPa East 4.8 km/h 8 km/h 98 % 0 mm
07:19 19.8 °C 19.5 °C 1021.6 hPa SSE 1.6 km/h 8 km/h 98 % 0 mm
07:24 19.8 °C 19.5 °C 1021.6 hPa ESE 3.2 km/h 8 km/h 98 % 0 mm
07:25 19.8 °C 19.5 °C 1021.6 hPa SSE 1.6 km/h 8 km/h 98 % 0 mm
07:30 19.9 °C 19.6 °C 1021.9 hPa ESE 4.8 km/h 9.7 km/h 98 % 0 mm
07:35 19.9 °C 19.6 °C 1021.9 hPa SE 1.6 km/h 9.7 km/h 98 % 0 mm
07:40 19.9 °C 19.6 °C 1021.9 hPa SE 1.6 km/h 9.7 km/h 98 % 0 mm
07:45 20 °C 19.7 °C 1021.9 hPa East 3.2 km/h 8 km/h 98 % 0 mm
07:50 20.1 °C 19.8 °C 1021.9 hPa ESE 4.8 km/h 8 km/h 98 % 0 mm
07:55 20.1 °C 19.8 °C 1021.9 hPa ESE 11.3 km/h 11.3 km/h 98 % 0 mm
08:00 20.2 °C 19.9 °C 1021.9 hPa ESE 1.6 km/h 11.3 km/h 98 % 0 mm
08:05 20.3 °C 20 °C 1021.9 hPa SE 6.4 km/h 11.3 km/h 98 % 0 mm
08:10 20.3 °C 20 °C 1022.2 hPa South 6.4 km/h 11.3 km/h 98 % 0 mm
08:15 20.3 °C 20 °C 1022.2 hPa ESE 3.2 km/h 9.7 km/h 98 % 0 mm
08:20 20.4 °C 19.9 °C 1022.2 hPa SE 1.6 km/h 9.7 km/h 97 % 0 mm
08:25 20.5 °C 20 °C 1022.2 hPa SSE 4.8 km/h 9.7 km/h 97 % 0 mm
08:30 20.6 °C 20.1 °C 1022.2 hPa ESE 3.2 km/h 11.3 km/h 97 % 0 mm
08:36 20.7 °C 20.2 °C 1022.2 hPa ESE 4.8 km/h 11.3 km/h 97 % 0 mm
08:41 20.7 °C 20.2 °C 1022.2 hPa ESE 11.3 km/h 11.3 km/h 97 % 0 mm
08:46 20.8 °C 20.1 °C 1022.2 hPa Calm   11.3 km/h 96 % 0 mm
08:51 20.8 °C 20.1 °C 1022.2 hPa SE 1.6 km/h 11.3 km/h 96 % 0 mm
08:56 20.8 °C 20.1 °C 1022.2 hPa ESE 3.2 km/h 12.9 km/h 96 % 0 mm
09:01 20.9 °C 20.2 °C 1022.6 hPa SSE 1.6 km/h 12.9 km/h 96 % 0 mm
09:06 21 °C 20.2 °C 1022.2 hPa SE 3.2 km/h 12.9 km/h 95 % 0 mm
09:11 21.1 °C 20.3 °C 1022.6 hPa ENE 8 km/h 9.7 km/h 95 % 0 mm
09:16 21.3 °C 20.5 °C 1022.6 hPa ESE 3.2 km/h 9.7 km/h 95 % 0 mm
09:21 21.4 °C 20.4 °C 1022.6 hPa SSE 1.6 km/h 9.7 km/h 94 % 0 mm
09:26 21.5 °C 20.5 °C 1022.6 hPa SSE 6.4 km/h 9.7 km/h 94 % 0 mm
09:31 21.6 °C 20.4 °C 1022.6 hPa SE 6.4 km/h 12.9 km/h 93 % 0 mm
09:36 21.7 °C 20.5 °C 1022.6 hPa ESE 3.2 km/h 12.9 km/h 93 % 0 mm
09:41 21.8 °C 20.4 °C 1022.6 hPa ESE 11.3 km/h 12.9 km/h 92 % 0 mm
09:46 21.9 °C 20.4 °C 1022.6 hPa East 4.8 km/h 11.3 km/h 91 % 0 mm
09:51 21.9 °C 20.4 °C 1022.6 hPa SSE 3.2 km/h 16.1 km/h 91 % 0 mm
09:56 21.9 °C 20.2 °C 1022.6 hPa SSE 3.2 km/h 16.1 km/h 90 % 0 mm
10:01 22.1 °C 20.4 °C 1022.6 hPa East 6.4 km/h 16.1 km/h 90 % 0 mm
10:06 22.2 °C 20.5 °C 1022.6 hPa South 8 km/h 12.9 km/h 90 % 0 mm
10:11 22.3 °C 20.4 °C 1022.2 hPa SSE 4.8 km/h 17.7 km/h 89 % 0 mm
10:16 22.5 °C 20.6 °C 1022.2 hPa SE 6.4 km/h 17.7 km/h 89 % 0 mm
10:21 22.7 °C 20.8 °C 1022.2 hPa SSW 8 km/h 17.7 km/h 89 % 0 mm
10:26 22.8 °C 20.7 °C 1022.2 hPa SSE 9.7 km/h 16.1 km/h 88 % 0 mm
10:31 22.9 °C 20.6 °C 1022.2 hPa ESE 11.3 km/h 17.7 km/h 87 % 0 mm
10:36 23.1 °C 20.8 °C 1022.2 hPa SSE 9.7 km/h 17.7 km/h 87 % 0 mm
10:41 23.2 °C 20.7 °C 1022.2 hPa East 6.4 km/h 17.7 km/h 86 % 0 mm
10:46 23.4 °C 20.9 °C 1021.9 hPa SSE 4.8 km/h 14.5 km/h 86 % 0 mm
10:51 23.6 °C 20.9 °C 1021.9 hPa ESE 6.4 km/h 14.5 km/h 85 % 0 mm
10:56 23.7 °C 21 °C 1021.9 hPa East 9.7 km/h 17.7 km/h 85 % 0 mm
11:01 23.7 °C 20.8 °C 1021.9 hPa ENE 11.3 km/h 17.7 km/h 84 % 0 mm
11:06 23.8 °C 20.7 °C 1021.9 hPa SE 8 km/h 17.7 km/h 83 % 0 mm
11:11 23.9 °C 20.8 °C 1021.9 hPa SE 8 km/h 17.7 km/h 83 % 0 mm
11:16 24.2 °C 21.1 °C 1021.9 hPa ENE 9.7 km/h 16.1 km/h 83 % 0 mm
11:21 24.2 °C 20.7 °C 1021.9 hPa SE 4.8 km/h 16.1 km/h 81 % 0 mm
11:22 24.2 °C 20.7 °C 1021.9 hPa ESE 9.7 km/h 16.1 km/h 81 % 0 mm
11:27 24.3 °C 20.8 °C 1021.9 hPa SE 4.8 km/h 16.1 km/h 81 % 0 mm
11:32 24.2 °C 20.7 °C 1021.6 hPa South 4.8 km/h 16.1 km/h 81 % 0 mm
11:37 24.2 °C 20.5 °C 1021.6 hPa SSE 4.8 km/h 14.5 km/h 80 % 0 mm
11:42 24.3 °C 20.6 °C 1021.6 hPa SSE 9.7 km/h 14.5 km/h 80 % 0 mm
11:47 24.3 °C 20.8 °C 1021.6 hPa SE 6.4 km/h 14.5 km/h 81 % 0 mm
11:52 24.2 °C 20.5 °C 1021.6 hPa South 6.4 km/h 14.5 km/h 80 % 0 mm
11:57 24.2 °C 20.5 °C 1021.6 hPa South 9.7 km/h 14.5 km/h 80 % 0 mm
12:02 24.2 °C 20.7 °C 1021.2 hPa SSW 1.6 km/h 14.5 km/h 81 % 0 mm
12:07 24.4 °C 20.7 °C 1021.2 hPa ESE 4.8 km/h 14.5 km/h 80 % 0 mm
12:12 24.3 °C 20.6 °C 1021.2 hPa SE 4.8 km/h 12.9 km/h 80 % 0 mm
12:17 24.2 °C 20.5 °C 1021.2 hPa ESE 4.8 km/h 12.9 km/h 80 % 0 mm
12:22 24.1 °C 20.6 °C 1020.9 hPa SSE 8 km/h 14.5 km/h 81 % 0 mm
12:27 24.1 °C 20.6 °C 1020.9 hPa SE 6.4 km/h 14.5 km/h 81 % 0 mm
12:32 24.2 °C 20.7 °C 1020.9 hPa SE 8 km/h 14.5 km/h 81 % 0 mm
12:35 24.2 °C 20.7 °C 1020.9 hPa SE 8 km/h 14.5 km/h 81 % 0 mm
12:37 24.3 °C 20.8 °C 1020.9 hPa ESE 8 km/h 12.9 km/h 81 % 0 mm
12:38 24.3 °C 20.6 °C 1020.9 hPa SSE 4.8 km/h 12.9 km/h 80 % 0 mm
12:42 24.4 °C 20.9 °C 1020.9 hPa SSE 8 km/h 12.9 km/h 81 % 0 mm
12:45 24.5 °C 20.8 °C 1020.5 hPa SE 9.7 km/h 12.9 km/h 80 % 0 mm
12:49 24.5 °C 20.6 °C 1020.5 hPa SSE 14.5 km/h 14.5 km/h 79 % 0 mm
12:54 24.7 °C 21.2 °C 1020.5 hPa ESE 9.7 km/h 19.3 km/h 81 % 0 mm
12:59 24.8 °C 20.9 °C 1020.2 hPa SE 4.8 km/h 19.3 km/h 79 % 0 mm
13:04 24.9 °C 20.8 °C 1020.2 hPa ESE 12.9 km/h 19.3 km/h 78 % 0 mm
13:09 24.8 °C 20.9 °C 1020.2 hPa SSW 9.7 km/h 14.5 km/h 79 % 0 mm
13:14 24.7 °C 21 °C 1019.9 hPa SSE 11.3 km/h 16.1 km/h 80 % 0 mm
13:19 24.8 °C 21.1 °C 1019.9 hPa SE 4.8 km/h 16.1 km/h 80 % 0 mm
13:24 25.1 °C 21.4 °C 1019.5 hPa SE 6.4 km/h 16.1 km/h 80 % 0 mm
13:29 25.2 °C 21.1 °C 1019.5 hPa SSE 3.2 km/h 16.1 km/h 78 % 0 mm
13:34 25.4 °C 21.3 °C 1019.5 hPa East 11.3 km/h 11.3 km/h 78 % 0 mm
13:39 25.7 °C 21.1 °C 1019.2 hPa SSE 3.2 km/h 12.9 km/h 76 % 0 mm
13:44 25.8 °C 21 °C 1019.2 hPa SE 6.4 km/h 14.5 km/h 75 % 0 mm
13:49 25.5 °C 21.2 °C 1019.2 hPa ESE 11.3 km/h 14.5 km/h 77 % 0 mm
13:54 25.2 °C 21.3 °C 1018.8 hPa South 1.6 km/h 17.7 km/h 79 % 0 mm
13:59 25.1 °C 21.2 °C 1018.8 hPa SE 14.5 km/h 17.7 km/h 79 % 0 mm
14:04 24.9 °C 21 °C 1018.8 hPa SE 9.7 km/h 17.7 km/h 79 % 0 mm
14:09 25.1 °C 21 °C 1018.8 hPa SE 9.7 km/h 19.3 km/h 78 % 0 mm
14:14 25.2 °C 21.1 °C 1018.8 hPa SE 16.1 km/h 19.3 km/h 78 % 0 mm
14:19 25.4 °C 21.1 °C 1018.8 hPa SE 6.4 km/h 19.3 km/h 77 % 0 mm
14:24 25.4 °C 21.1 °C 1018.8 hPa SSE 8 km/h 19.3 km/h 77 % 0 mm
14:29 25.3 °C 21 °C 1018.8 hPa SE 4.8 km/h 19.3 km/h 77 % 0 mm
14:34 25.1 °C 21 °C 1018.5 hPa SE 8 km/h 19.3 km/h 78 % 0 mm
14:39 25 °C 20.9 °C 1018.5 hPa SSE 8 km/h 17.7 km/h 78 % 0 mm
14:44 24.9 °C 21 °C 1018.5 hPa East 19.3 km/h 19.3 km/h 79 % 0 mm
14:49 24.8 °C 21.1 °C 1018.5 hPa SE 9.7 km/h 19.3 km/h 80 % 0 mm
14:54 24.8 °C 21.1 °C 1018.5 hPa ESE 8 km/h 19.3 km/h 80 % 0 mm
14:58 24.7 °C 21 °C 1018.5 hPa East 6.4 km/h 19.3 km/h 80 % 0 mm
15:03 24.6 °C 21.1 °C 1018.2 hPa SE 4.8 km/h 17.7 km/h 81 % 0 mm
15:08 24.6 °C 21.1 °C 1018.2 hPa East 4.8 km/h 14.5 km/h 81 % 0 mm
15:13 24.6 °C 21.1 °C 1018.2 hPa ESE 8 km/h 12.9 km/h 81 % 0 mm
15:18 24.6 °C 21.1 °C 1018.2 hPa ENE 6.4 km/h 16.1 km/h 81 % 0 mm
15:23 24.6 °C 20.9 °C 1018.2 hPa ESE 11.3 km/h 16.1 km/h 80 % 0 mm
15:28 24.6 °C 20.9 °C 1018.2 hPa ESE 9.7 km/h 16.1 km/h 80 % 0 mm
15:33 24.6 °C 20.9 °C 1018.2 hPa SE 4.8 km/h 12.9 km/h 80 % 0 mm
15:38 24.6 °C 20.7 °C 1018.2 hPa SSE 6.4 km/h 12.9 km/h 79 % 0 mm
15:43 24.6 °C 20.7 °C 1017.8 hPa SE 11.3 km/h 12.9 km/h 79 % 0 mm
15:48 24.6 °C 20.7 °C 1018.2 hPa ESE 12.9 km/h 17.7 km/h 79 % 0 mm
15:53 24.6 °C 20.7 °C 1017.8 hPa ESE 17.7 km/h 19.3 km/h 79 % 0 mm
15:58 24.6 °C 20.7 °C 1017.8 hPa ESE 8 km/h 19.3 km/h 79 % 0 mm
16:03 24.6 °C 20.5 °C 1017.8 hPa SE 8 km/h 19.3 km/h 78 % 0 mm
16:08 24.6 °C 20.5 °C 1017.8 hPa South 6.4 km/h 17.7 km/h 78 % 0 mm
16:13 24.7 °C 20.6 °C 1017.8 hPa SE 3.2 km/h 14.5 km/h 78 % 0 mm
16:18 24.7 °C 20.6 °C 1017.8 hPa SE 9.7 km/h 14.5 km/h 78 % 0 mm
16:23 24.7 °C 20.6 °C 1017.8 hPa SSE 6.4 km/h 16.1 km/h 78 % 0 mm
16:28 24.7 °C 20.6 °C 1017.8 hPa SSW 3.2 km/h 16.1 km/h 78 % 0 mm
16:33 24.8 °C 20.7 °C 1017.8 hPa SSE 4.8 km/h 16.1 km/h 78 % 0 mm
16:38 24.8 °C 20.5 °C 1017.8 hPa SE 4.8 km/h 14.5 km/h 77 % 0 mm
16:43 24.9 °C 20.4 °C 1017.8 hPa SSE 3.2 km/h 14.5 km/h 76 % 0 mm
16:48 24.9 °C 20.4 °C 1017.8 hPa SE 6.4 km/h 14.5 km/h 76 % 0 mm
16:53 25 °C 20.5 °C 1017.8 hPa SE 6.4 km/h 12.9 km/h 76 % 0 mm
16:59 25.1 °C 20.6 °C 1017.5 hPa SSE 6.4 km/h 14.5 km/h 76 % 0 mm
17:04 25.1 °C 20.6 °C 1017.5 hPa SSE 6.4 km/h 14.5 km/h 76 % 0 mm
17:09 25.1 °C 20.6 °C 1017.5 hPa SSE 8 km/h 17.7 km/h 76 % 0 mm
17:14 24.9 °C 20.4 °C 1017.5 hPa SSW 4.8 km/h 17.7 km/h 76 % 0 mm
17:19 24.8 °C 20.5 °C 1017.5 hPa SSE 6.4 km/h 17.7 km/h 77 % 0 mm
17:24 24.8 °C 20.5 °C 1017.5 hPa SE 4.8 km/h 16.1 km/h 77 % 0 mm
17:29 24.7 °C 20.4 °C 1017.5 hPa SSW 12.9 km/h 14.5 km/h 77 % 0 mm
17:34 24.7 °C 20.4 °C 1017.5 hPa SSE 4.8 km/h 16.1 km/h 77 % 0 mm
17:39 24.7 °C 20.4 °C 1017.2 hPa South 4.8 km/h 16.1 km/h 77 % 0 mm
17:44 24.6 °C 20.5 °C 1017.2 hPa SSE 12.9 km/h 16.1 km/h 78 % 0 mm
17:49 24.6 °C 20.5 °C 1017.2 hPa ESE 4.8 km/h 16.1 km/h 78 % 0 mm
17:54 24.6 °C 20.5 °C 1017.2 hPa South 8 km/h 16.1 km/h 78 % 0 mm
17:59 24.4 °C 20.3 °C 1017.5 hPa South 9.7 km/h 16.1 km/h 78 % 0 mm
18:04 24.4 °C 20.5 °C 1017.8 hPa SE 6.4 km/h 14.5 km/h 79 % 0 mm
18:09 24.3 °C 20.4 °C 1017.8 hPa SSE 3.2 km/h 14.5 km/h 79 % 0 mm
18:14 24.3 °C 20.6 °C 1017.8 hPa South 6.4 km/h 14.5 km/h 80 % 0 mm
18:19 24.2 °C 20.5 °C 1017.8 hPa SE 6.4 km/h 12.9 km/h 80 % 0 mm
18:24 24.1 °C 20.6 °C 1017.8 hPa ESE 3.2 km/h 12.9 km/h 81 % 0 mm
18:29 24 °C 20.5 °C 1017.8 hPa SE 3.2 km/h 11.3 km/h 81 % 0 mm
18:34 23.9 °C 20.6 °C 1018.2 hPa SSE 3.2 km/h 9.7 km/h 82 % 0 mm
18:39 23.9 °C 20.6 °C 1018.2 hPa SE 1.6 km/h 8 km/h 82 % 0 mm
18:44 23.9 °C 20.6 °C 1018.2 hPa ESE 1.6 km/h 6.4 km/h 82 % 0 mm
18:49 23.9 °C 20.6 °C 1018.2 hPa SSE 3.2 km/h 6.4 km/h 82 % 0 mm
18:54 23.9 °C 20.8 °C 1018.2 hPa South 3.2 km/h 9.7 km/h 83 % 0 mm
18:59 23.9 °C 20.8 °C 1018.2 hPa South 4.8 km/h 9.7 km/h 83 % 0 mm
19:04 23.9 °C 20.8 °C 1018.5 hPa SSE 3.2 km/h 9.7 km/h 83 % 0 mm
19:09 23.9 °C 20.8 °C 1018.5 hPa East 3.2 km/h 11.3 km/h 83 % 0 mm
19:14 23.9 °C 20.8 °C 1018.8 hPa SSE 4.8 km/h 11.3 km/h 83 % 0 mm
19:19 23.8 °C 20.7 °C 1018.8 hPa SE 6.4 km/h 11.3 km/h 83 % 0 mm
19:24 23.8 °C 20.9 °C 1018.8 hPa South 6.4 km/h 9.7 km/h 84 % 0 mm
19:29 23.8 °C 20.9 °C 1018.8 hPa South 3.2 km/h 9.7 km/h 84 % 0 mm
19:34 23.7 °C 20.8 °C 1018.8 hPa SE 9.7 km/h 9.7 km/h 84 % 0 mm
19:39 23.7 °C 21 °C 1018.8 hPa SSE 4.8 km/h 11.3 km/h 85 % 0 mm
19:44 23.6 °C 21.1 °C 1018.8 hPa SSE 4.8 km/h 11.3 km/h 86 % 0 mm
19:49 23.6 °C 21.1 °C 1019.2 hPa ESE 9.7 km/h 12.9 km/h 86 % 0 mm
19:54 23.6 °C 21.1 °C 1019.2 hPa SSE 3.2 km/h 12.9 km/h 86 % 0 mm
19:59 23.5 °C 21 °C 1019.2 hPa SSW 1.6 km/h 12.9 km/h 86 % 0 mm
20:04 23.4 °C 21.1 °C 1019.5 hPa South 3.2 km/h 11.3 km/h 87 % 0 mm
20:09 23.3 °C 21 °C 1019.5 hPa SSE 1.6 km/h 9.7 km/h 87 % 0 mm
20:14 23.3 °C 21 °C 1019.5 hPa SSW 6.4 km/h 6.4 km/h 87 % 0 mm
20:19 23.3 °C 21 °C 1019.5 hPa SSW 4.8 km/h 14.5 km/h 87 % 0 mm
20:24 23.3 °C 21.2 °C 1019.5 hPa SSE 4.8 km/h 14.5 km/h 88 % 0 mm
20:29 23.2 °C 21.1 °C 1019.9 hPa SSW 4.8 km/h 14.5 km/h 88 % 0 mm
20:35 23.2 °C 21.1 °C 1019.9 hPa South 4.8 km/h 12.9 km/h 88 % 0 mm
20:39 23.2 °C 21.1 °C 1019.5 hPa SE 8 km/h 11.3 km/h 88 % 0 mm
20:44 23.1 °C 21 °C 1019.9 hPa SSE 6.4 km/h 11.3 km/h 88 % 0 mm
20:50 23.1 °C 21 °C 1019.9 hPa South 1.6 km/h 11.3 km/h 88 % 0 mm
20:55 23.1 °C 21.2 °C 1019.9 hPa SSE 1.6 km/h 9.7 km/h 89 % 0 mm
21:00 22.9 °C 21 °C 1019.9 hPa SE 3.2 km/h 9.7 km/h 89 % 0 mm
21:05 22.9 °C 21 °C 1019.9 hPa SSE 3.2 km/h 9.7 km/h 89 % 0 mm
21:10 22.9 °C 21 °C 1019.9 hPa Calm   9.7 km/h 89 % 0 mm
21:15 22.8 °C 20.9 °C 1019.9 hPa SSE 3.2 km/h 9.7 km/h 89 % 0 mm
21:20 22.8 °C 20.9 °C 1019.9 hPa SSE 3.2 km/h 11.3 km/h 89 % 0 mm
21:25 22.7 °C 21 °C 1019.9 hPa SSW 1.6 km/h 11.3 km/h 90 % 0 mm
21:30 22.7 °C 21 °C 1019.9 hPa SSE 4.8 km/h 11.3 km/h 90 % 0 mm
21:35 22.7 °C 21 °C 1020.2 hPa SE 1.6 km/h 11.3 km/h 90 % 0 mm
21:40 22.7 °C 21 °C 1020.2 hPa SE 1.6 km/h 6.4 km/h 90 % 0 mm
21:45 22.6 °C 20.9 °C 1020.2 hPa SSW 3.2 km/h 6.4 km/h 90 % 0 mm
21:50 22.6 °C 20.9 °C 1020.2 hPa SSE 1.6 km/h 4.8 km/h 90 % 0 mm
21:55 22.6 °C 20.9 °C 1020.2 hPa SSE 1.6 km/h 4.8 km/h 90 % 0 mm
22:00 22.6 °C 20.9 °C 1019.9 hPa SSE 1.6 km/h 4.8 km/h 90 % 0 mm
22:05 22.6 °C 20.9 °C 1019.9 hPa SE 3.2 km/h 4.8 km/h 90 % 0 mm
22:10 22.5 °C 20.8 °C 1019.9 hPa Calm   4.8 km/h 90 % 0 mm
22:15 22.5 °C 21 °C 1019.9 hPa SE 3.2 km/h 6.4 km/h 91 % 0 mm
22:20 22.5 °C 21 °C 1019.9 hPa SSE 3.2 km/h 6.4 km/h 91 % 0 mm
22:25 22.5 °C 21 °C 1019.5 hPa SE 1.6 km/h 6.4 km/h 91 % 0 mm
22:30 22.4 °C 20.9 °C 1019.5 hPa SE 4.8 km/h 6.4 km/h 91 % 0 mm
22:35 22.4 °C 20.9 °C 1019.5 hPa SE 4.8 km/h 9.7 km/h 91 % 0 mm
22:40 22.3 °C 20.8 °C 1019.2 hPa SSE 3.2 km/h 9.7 km/h 91 % 0 mm
22:45 22.2 °C 20.7 °C 1019.2 hPa SE 3.2 km/h 9.7 km/h 91 % 0 mm
22:50 22.2 °C 20.8 °C 1019.2 hPa SSE 1.6 km/h 6.4 km/h 92 % 0 mm
22:55 22.1 °C 20.7 °C 1018.8 hPa South 3.2 km/h 6.4 km/h 92 % 0 mm
23:00 22 °C 20.6 °C 1019.2 hPa Calm   6.4 km/h 92 % 0 mm
23:05 21.9 °C 20.5 °C 1019.2 hPa Calm   4.8 km/h 92 % 0 mm
23:10 21.9 °C 20.5 °C 1018.8 hPa SSE 4.8 km/h 4.8 km/h 92 % 0 mm
23:15 21.9 °C 20.7 °C 1018.8 hPa SSE 4.8 km/h 8 km/h 93 % 0 mm
23:20 21.8 °C 20.6 °C 1018.5 hPa SE 8 km/h 9.7 km/h 93 % 0 mm
23:25 21.8 °C 20.6 °C 1018.8 hPa SSE 4.8 km/h 9.7 km/h 93 % 0 mm
23:30 21.8 °C 20.6 °C 1018.8 hPa SSE 3.2 km/h 9.7 km/h 93 % 0 mm
23:35 21.8 °C 20.6 °C 1018.8 hPa South 6.4 km/h 9.7 km/h 93 % 0 mm
23:40 21.7 °C 20.7 °C 1018.8 hPa South 3.2 km/h 9.7 km/h 94 % 0 mm
23:45 21.7 °C 20.7 °C 1018.8 hPa SW 6.4 km/h 8 km/h 94 % 0 mm
23:50 21.6 °C 20.6 °C 1018.5 hPa SSE 6.4 km/h 8 km/h 94 % 0 mm
23:55 21.6 °C 20.6 °C 1018.5 hPa SSE 4.8 km/h 9.7 km/h 94 % 0 mm
Spring, Texas: Villages of Bridgestone
Compliments of Weather Underground - 2.75 mb

Script developed by  Jim McMurry - jmcmurry@mwt.net Adapted for the template by  Wim van der Kuil - Leuven-Template.eu

You find our weather info also at:

UK Metoffice

WeatherCloud

Weather Underground

Mid-South Weather Network

AWEKAS

Citizen Weather Observer Program (CWOP)

HAMweather, WeatherForYou, PWS Weather

Equipment we use:

Weather-station
Davis Vantage Vue

Weather-program
Meteohub

Weather-server
Debian 7.9 x86 (Guest)

Provider
DreamHost

Davis Vantage Vue

Meteohub

Debian 7.9 x86 (Guest)

DreamHost